Location: Burera
(21.3780°N, 81.9534°E)
Time: 12:08:48
(UTC+00:00)

CSL-04 Rocket - Pass Details

Date: 13 August 2020
Orbit: 807 x 859 km, 98.9° (Epoch: 21 September)

Event Time Altitude Azimuth Distance (km) Brightness Sun altitude
Rises 13:22:19 0° 155° (SSE) 3,330 6.4 -5.0°
Reaches altitude 10° 13:24:43 10° 150° (SSE) 2,394 5.6 -5.5°
Maximum altitude 13:29:50 52° 75° (ENE) 997 3.8 -6.6°
Drops below altitude 10° 13:34:56 10° 360° (N) 2,386 6.3 -7.8°
Sets 13:37:18 0° 355° (N) 3,319 7.1 -8.3°
